Simultaneous Nadir Overpasses (SNOs) Predictions

Prediction of SNOs between AQUA and METOP-A Satellite Orbit:

Table of predicted SNOs for the next 14.0 days since TLE Epoch: 9/4/2020
Index Date (AQUA) Time (AQUA) Lat,Lon (AQUA) SZA (AQUA ) Date (METOP-A) Time (METOP-A) Lat,Lon (METOP-A) SZA (METOP-A ) Distance(km) Time Diff (sec)
1 09/05/2020 14:48:31 76.24, -54.05 69.97 09/05/2020 14:47:23 76.15, -56.21 70.03 58.03 68
2 09/05/2020 15:38:03 -76.54, 112.58 109.67 09/05/2020 15:37:56 -76.56, 112.53 109.65 2.49 7
3 09/05/2020 16:27:32 76.62, -80.04 70.43 09/05/2020 16:28:35 76.60, -80.00 70.40 2.54 63
4 09/08/2020 10:22:52 76.54, 11.40 71.35 09/08/2020 10:21:39 76.51, 11.36 71.35 3.04 73
5 09/08/2020 11:12:19 -76.59, 178.85 108.58 09/08/2020 11:12:19 -76.60, 179.00 108.58 3.76 0
6 09/08/2020 12:01:47 76.63, -13.64 71.48 09/08/2020 12:02:58 76.63, -13.55 71.47 2.35 71
7 09/11/2020 05:57:07 76.55, 77.79 72.42 09/11/2020 05:56:02 76.54, 77.82 72.43 1.29 65
8 09/11/2020 06:46:34 -76.60,-114.73 107.51 09/11/2020 06:46:43 -76.58,-114.70 107.53 1.91 9
9 09/11/2020 07:36:07 76.88, 51.91 72.83 09/11/2020 07:37:16 76.89, 53.76 72.73 46.63 69
10 09/14/2020 01:31:21 76.57, 144.16 73.51 09/14/2020 01:30:24 76.57, 144.26 73.51 2.58 57
11 09/14/2020 02:20:48 -76.61, -48.34 106.44 09/14/2020 02:21:05 -76.61, -48.25 106.44 2.40 17
12 09/16/2020 21:05:35 76.55,-149.32 74.55 09/16/2020 21:04:48 76.55,-149.46 74.57 3.73 47
13 09/16/2020 21:55:03 -76.63, 18.04 105.35 09/16/2020 21:55:29 -76.60, 18.04 105.38 3.24 26
